Location: Br�ttisellen
(47.4227°N, 8.6287°E)
Time: 04:57:31
(UTC+00:00)

STARLINK-1238 - Pass Details

Date: 09 April 2020
Orbit: 549 x 550 km, 53.0° (Epoch: 29 May)

Event Time Altitude Azimuth Distance (km) Brightness Sun altitude
Rises 20:10:22 0° 292° (WNW) 2,726 8.6 -19.6°
Reaches altitude 10° 20:12:56 10° 278° (W) 1,828 7.1 -20.0°
Maximum altitude 20:16:13 23° 226° (SW) 1,197 5.4 -20.4°
Enters shadow 20:17:14 21° 204° (SSW) 1,269 5.3 -20.6°
